Location: Schommer Observatory
(40.5200°N, 74.4500°W)
Time: 00:33:41
(UTC-05:00)

Tiangong 2 - Pass Details

Date: 11 November 2017
Orbit: 386 x 392 km, 42.8° (Epoch: 23 November)

Event Time Altitude Azimuth Distance (km) Brightness Sun altitude
Rises 19:13:59 0° 275° (W) 2,270 6.2 -28.7°
Reaches altitude 10° 19:16:52 10° 246° (WSW) 1,409 4.7 -29.3°
Enters shadow 19:17:10 11° 241° (WSW) 1,352 4.5 -29.3°
